Change the Weather History Date:

Thursday, July 4, 2013

  Actual Average (KMFE) Record (KMFE)
Temperature  
Mean Temperature 84 °F 86 °F  
Max Temperature 94 °F 97 °F 107 °F (2009)
Min Temperature 73 °F 76 °F 68 °F (1974)
Degree Days  
Heating Degree Days 0 0  
Month to date heating degree days 0  
Since 1 June heating degree days 0  
Since 1 July heating degree days 0  
Cooling Degree Days 18 21  
Month to date cooling degree days 84  
Year to date cooling degree days 1967  
Since 1 June cooling degree days 712  
Growing Degree Days 34 (Base 50)    
Moisture  
Dew Point 67 °F    
Average Humidity 63    
Maximum Humidity 87    
Minimum Humidity 30    
Precipitation  
Precipitation 0.00 in 0.07 in 0.98 in (1974)
Month to date precipitation 0.30  
Year to date precipitation 9.66  
Sea Level Pressure  
Sea Level Pressure 29.93 in    
Wind  
Wind Speed 3 mph (ESE)    
Max Wind Speed 15 mph    
Max Gust Speed 23 mph    
Visibility 10 miles    
Events      
T = Trace of Precipitation, MM = Missing Value Source: NWS Daily Summary

Daily Weather History Graph

Daily Weather History Graph

Search for Another Location

Airport or City:

Trip Planner

Search our weather history database for the weather conditions in past years. The results will help you decide how hot, cold, wet, or windy it might be!

Date:

Astronomy

Jul. 04, 2013 Rise Set
Actual Time 6:44 AM CDT 8:28 PM CDT
Civil Twilight 6:18 AM CDT 8:54 PM CDT
Nautical Twilight 5:47 AM CDT 9:25 PM CDT
Astronomical Twilight 5:14 AM CDT 9:58 PM CDT
Moon 3:54 AM CDT (7/4) 5:39 PM CDT (7/4)
Length of Visible Light 14h 35m
Length of Day
13h 43m
Waning Crescent, 11% of the Moon is Illuminated
Jul 4
Waning Crescent
Jul 8
New
Jul 15
First Quarter
Jul 22
Full
Jul 29
Last Quarter

Hourly Weather History & Observations

Time (CDT) Temp. Heat Index Dew Point Humidity Pressure Visibility Wind Dir Wind Speed Gust Speed Precip Events Conditions
12:15 AM 76.5 °F - 66.6 °F 71% 29.96 in 10.0 mi SSE 3.5 mph - N/A   Clear
12:35 AM 76.1 °F - 67.1 °F 74% 29.96 in 10.0 mi SE 3.5 mph - N/A   Clear
12:55 AM 76.3 °F - 68.0 °F 75% 29.96 in 10.0 mi SE 3.5 mph - N/A   Clear
1:15 AM 76.1 °F - 68.0 °F 76% 29.96 in 10.0 mi Calm Calm - N/A   Clear
1:35 AM 75.6 °F - 68.0 °F 77% 29.96 in 10.0 mi Calm Calm - N/A   Clear
1:55 AM 75.9 °F - 68.0 °F 76% 29.96 in 10.0 mi Calm Calm - N/A   Clear
2:15 AM 75.4 °F - 67.8 °F 77% 29.95 in 10.0 mi SE 3.5 mph - N/A   Clear
2:35 AM 75.2 °F - 67.8 °F 78% 29.95 in 10.0 mi Calm Calm - N/A   Clear
3:15 AM 74.8 °F - 67.8 °F 79% 29.94 in 10.0 mi SE 3.5 mph - N/A   Clear
3:35 AM 74.7 °F - 68.0 °F 80% 29.93 in 10.0 mi Calm Calm - N/A   Clear
3:55 AM 74.5 °F - 68.0 °F 80% 29.92 in 10.0 mi Calm Calm - N/A   Clear
4:15 AM 74.5 °F - 68.0 °F 80% 29.92 in 10.0 mi SSE 3.5 mph - N/A   Clear
4:35 AM 74.1 °F - 68.0 °F 81% 29.92 in 10.0 mi SSE 3.5 mph - N/A   Clear
4:55 AM 74.5 °F - 68.2 °F 81% 29.92 in 10.0 mi Calm Calm - N/A   Clear
5:15 AM 74.5 °F - 68.2 °F 81% 29.92 in 10.0 mi Calm Calm - N/A   Clear
5:35 AM 74.3 °F - 68.4 °F 82% 29.92 in 10.0 mi Calm Calm - N/A   Clear
5:55 AM 73.9 °F - 68.4 °F 83% 29.92 in 10.0 mi Calm Calm - N/A   Clear
6:15 AM 74.1 °F - 68.7 °F 83% 29.92 in 10.0 mi Calm Calm - N/A   Clear
6:35 AM 74.3 °F - 68.9 °F 83% 29.92 in 10.0 mi Calm Calm - N/A   Clear
6:55 AM 73.4 °F - 68.5 °F 85% 29.93 in 10.0 mi Calm Calm - N/A   Clear
7:15 AM 73.0 °F - 68.9 °F 87% 29.93 in 7.0 mi Calm Calm - N/A   Clear
7:35 AM 74.1 °F - 69.1 °F 84% 29.93 in 7.0 mi Calm Calm - N/A   Clear
7:55 AM 75.2 °F - 69.8 °F 83% 29.93 in 7.0 mi Calm Calm - N/A   Clear
8:15 AM 76.3 °F - 69.8 °F 80% 29.94 in 10.0 mi Calm Calm - N/A   Clear
8:35 AM 77.2 °F - 70.0 °F 78% 29.94 in 10.0 mi Calm Calm - N/A   Scattered Clouds
8:55 AM 78.6 °F - 70.3 °F 76% 29.95 in 7.0 mi ESE 3.5 mph - N/A   Clear
9:15 AM 80.1 °F 83.2 °F 70.0 °F 71% 29.96 in 7.0 mi ESE 3.5 mph - N/A   Clear
9:35 AM 81.5 °F 84.9 °F 69.6 °F 67% 29.96 in 7.0 mi ESE 5.8 mph - N/A   Clear
9:55 AM 82.2 °F 86.0 °F 69.6 °F 66% 29.96 in 7.0 mi East 5.8 mph - N/A   Clear
10:15 AM 83.3 °F 87.1 °F 69.6 °F 63% 29.96 in 7.0 mi ESE 4.6 mph - N/A   Clear
10:35 AM 83.3 °F 87.4 °F 69.8 °F 64% 29.96 in 10.0 mi SE 4.6 mph - N/A   Clear
10:55 AM 85.3 °F 89.8 °F 70.0 °F 60% 29.96 in 10.0 mi South 4.6 mph - N/A   Clear
11:15 AM 85.3 °F 89.4 °F 69.3 °F 59% 29.96 in 10.0 mi SE 3.5 mph - N/A   Scattered Clouds
11:35 AM 86.0 °F 90.1 °F 69.1 °F 57% 29.96 in 10.0 mi ESE 4.6 mph - N/A   Scattered Clouds
11:55 AM 86.9 °F 90.6 °F 68.5 °F 54% 29.96 in 10.0 mi ESE 8.1 mph - N/A   Scattered Clouds
12:15 PM 88.5 °F 92.3 °F 68.4 °F 51% 29.95 in 10.0 mi ENE 5.8 mph - N/A   Scattered Clouds
12:35 PM 88.9 °F 92.2 °F 67.3 °F 49% 29.95 in 10.0 mi East 5.8 mph - N/A   Scattered Clouds
12:55 PM 90.1 °F 92.7 °F 66.2 °F 45% 29.94 in 10.0 mi Calm Calm - N/A   Scattered Clouds
1:15 PM 91.4 °F 92.8 °F 63.7 °F 40% 29.94 in 10.0 mi Calm Calm - N/A   Scattered Clouds
1:35 PM 92.7 °F 93.2 °F 61.9 °F 36% 29.93 in 10.0 mi ESE 5.8 mph - N/A   Scattered Clouds
1:55 PM 92.5 °F 92.6 °F 61.3 °F 35% 29.91 in 10.0 mi East 8.1 mph - N/A   Clear
2:15 PM 91.6 °F 91.0 °F 59.4 °F 34% 29.91 in 10.0 mi ESE 9.2 mph - N/A   Clear
2:35 PM 92.5 °F 92.2 °F 60.6 °F 34% 29.90 in 10.0 mi East 5.8 mph - N/A   Scattered Clouds
2:55 PM 92.3 °F 91.3 °F 58.5 °F 32% 29.90 in 10.0 mi ESE 5.8 mph - N/A   Scattered Clouds
3:35 PM 94.1 °F 93.5 °F 58.8 °F 31% 29.89 in 10.0 mi SSE 6.9 mph - N/A   Clear
3:55 PM 93.2 °F 91.9 °F 57.6 °F 30% 29.88 in 10.0 mi ESE 4.6 mph - N/A   Clear
4:15 PM 92.7 °F 91.8 °F 58.6 °F 32% 29.88 in 10.0 mi ESE 3.5 mph - N/A   Clear
4:55 PM 93.4 °F 93.2 °F 60.4 °F 33% 29.87 in 10.0 mi East 8.1 mph - N/A   Scattered Clouds
5:15 PM 92.5 °F 91.9 °F 59.9 °F 33% 29.86 in 10.0 mi East 6.9 mph 16.1 mph N/A   Scattered Clouds
5:55 PM 91.4 °F 90.7 °F 59.0 °F 34% 29.86 in 10.0 mi ENE 12.7 mph 18.4 mph N/A   Clear
6:15 PM 90.5 °F 89.5 °F 58.3 °F 34% 29.86 in 10.0 mi East 11.5 mph - N/A   Clear
6:35 PM 89.1 °F 88.8 °F 60.3 °F 38% 29.87 in 10.0 mi East 15.0 mph 18.4 mph N/A   Clear
6:55 PM 87.6 °F 87.4 °F 60.6 °F 40% 29.87 in 10.0 mi East 15.0 mph 23.0 mph N/A   Clear
7:15 PM 86.2 °F 86.3 °F 61.5 °F 43% 29.88 in 10.0 mi East 11.5 mph 21.9 mph N/A   Clear
7:35 PM 85.1 °F 86.1 °F 63.1 °F 48% 29.89 in 10.0 mi East 10.4 mph 18.4 mph N/A   Clear
8:35 PM 82.4 °F 85.4 °F 68.0 °F 62% 29.91 in 10.0 mi East 10.4 mph 16.1 mph N/A   Clear
9:15 PM 81.3 °F 84.3 °F 68.4 °F 65% 29.91 in 10.0 mi ESE 6.9 mph - N/A   Clear
9:35 PM 80.8 °F 83.8 °F 68.9 °F 67% 29.92 in 10.0 mi East 6.9 mph - N/A   Clear
9:55 PM 80.2 °F 83.2 °F 69.4 °F 69% 29.92 in 10.0 mi ESE 6.9 mph - N/A   Clear
10:15 PM 79.9 °F - 69.8 °F 71% 29.92 in 10.0 mi ESE 5.8 mph - N/A   Clear
10:35 PM 79.5 °F - 69.8 °F 72% 29.93 in 10.0 mi ESE 5.8 mph - N/A   Clear
10:55 PM 79.3 °F - 69.8 °F 72% 29.93 in 10.0 mi ESE 4.6 mph - N/A   Clear
11:15 PM 79.0 °F - 69.8 °F 73% 29.93 in 10.0 mi ESE 3.5 mph - N/A   Clear
11:35 PM 78.6 °F - 69.8 °F 74% 29.94 in 10.0 mi SE 4.6 mph - N/A   Clear
11:55 PM 77.9 °F - 69.8 °F 76% 29.95 in 10.0 mi SE 3.5 mph - N/A   Clear